Tiempo cada hora Abramowice

Hoy, 25 Octubre, Domingo

Tiempo Temperatura Precipitaciones Viento Presión Humedad
00:00 +9°C° 0 mm 0 mps 728 mmHg 94%
01:00 +9°C° 0 mm 0 mps 728 mmHg 94%
02:00 +9°C° 0 mm 0 mps 728 mmHg 94%
03:00 +9°C° 0 mm 0 mps 727 mmHg 94%
04:00 +10°C° 0 mm 1 mps 727 mmHg 94%
05:00 +10°C° 0 mm 1 mps 727 mmHg 94%
06:00 +10°C° 0 mm 1 mps 727 mmHg 94%
07:00 +9°C° 0 mm 1 mps 727 mmHg 95%
08:00 +11°C° 0 mm 1 mps 727 mmHg 89%
09:00 +13°C° 0 mm 1 mps 727 mmHg 83%
10:00 +15°C° 0 mm 1 mps 727 mmHg 77%
11:00 +15°C° 0 mm 1 mps 727 mmHg 74%
12:00 +15°C° 0 mm 2 mps 726 mmHg 72%
13:00 +16°C° 0 mm 2 mps 726 mmHg 69%
14:00 +15°C° 0 mm 2 mps 726 mmHg 75%
15:00 +14°C° 0 mm 2 mps 725 mmHg 80%
16:00 +13°C° 0 mm 1 mps 725 mmHg 85%
17:00 +13°C° 0 mm 1 mps 725 mmHg 87%
18:00 +12°C° 0 mm 1 mps 725 mmHg 88%
19:00 +12°C° 0 mm 1 mps 725 mmHg 90%
20:00 +11°C° 0 mm 1 mps 725 mmHg 91%
21:00 +11°C° 0 mm 1 mps 725 mmHg 92%
22:00 +10°C° 0 mm 1 mps 724 mmHg 92%
23:00 +10°C° 0 mm 1 mps 724 mmHg 92%

Mañana, 26 Octubre, Lunes

Tiempo Temperatura Precipitaciones Viento Presión Humedad
00:00 +10°C° 0 mm 1 mps 724 mmHg 92%
01:00 +10°C° 0 mm 1 mps 724 mmHg 92%
02:00 +10°C° 0 mm 1 mps 724 mmHg 92%
03:00 +10°C° 0 mm 1 mps 723 mmHg 92%
04:00 +10°C° 0 mm 1 mps 723 mmHg 92%
05:00 +10°C° 0 mm 1 mps 723 mmHg 92%
06:00 +10°C° 0 mm 1 mps 723 mmHg 91%
07:00 +9°C° 0 mm 2 mps 723 mmHg 91%
08:00 +12°C° 0 mm 2 mps 723 mmHg 84%
09:00 +14°C° 0 mm 2 mps 723 mmHg 77%
10:00 +16°C° 0 mm 3 mps 723 mmHg 70%
11:00 +16°C° 0 mm 2 mps 723 mmHg 66%
12:00 +17°C° 0 mm 2 mps 723 mmHg 63%
13:00 +18°C° 0 mm 2 mps 723 mmHg 59%
14:00 +17°C° 0 mm 2 mps 723 mmHg 64%
15:00 +16°C° 0 mm 2 mps 722 mmHg 69%
16:00 +15°C° 0 mm 2 mps 722 mmHg 74%
17:00 +14°C° 0 mm 2 mps 722 mmHg 77%
18:00 +14°C° 0 mm 2 mps 722 mmHg 80%
19:00 +13°C° 0 mm 2 mps 723 mmHg 83%
20:00 +13°C° 0 mm 2 mps 723 mmHg 84%
21:00 +13°C° 0 mm 2 mps 723 mmHg 85%
22:00 +13°C° 0 mm 2 mps 723 mmHg 86%
23:00 +12°C° 0 mm 2 mps 723 mmHg 87%

Pasado mañana, 27 Octubre, Martes

Tiempo Temperatura Precipitaciones Viento Presión Humedad
00:00 +12°C° 0 mm 2 mps 723 mmHg 89%
01:00 +10°C° 0 mm 2 mps 723 mmHg 90%
02:00 +10°C° 0 mm 2 mps 723 mmHg 90%
03:00 +10°C° 0 mm 2 mps 723 mmHg 90%
04:00 +10°C° 0 mm 2 mps 723 mmHg 90%
05:00 +10°C° 0 mm 2 mps 723 mmHg 90%
06:00 +10°C° 0 mm 2 mps 723 mmHg 90%
07:00 +10°C° 0 mm 2 mps 723 mmHg 89%
08:00 +13°C° 0 mm 2 mps 724 mmHg 82%
09:00 +15°C° 0 mm 2 mps 724 mmHg 74%
10:00 +17°C° 0 mm 2 mps 724 mmHg 66%
11:00 +17°C° 0 mm 2 mps 724 mmHg 62%
12:00 +18°C° 0 mm 2 mps 724 mmHg 58%
13:00 +19°C° 0 mm 2 mps 724 mmHg 55%
14:00 +18°C° 0 mm 2 mps 724 mmHg 61%
15:00 +16°C° 0 mm 2 mps 724 mmHg 67%
16:00 +15°C° 0 mm 2 mps 724 mmHg 74%
17:00 +14°C° 0 mm 2 mps 724 mmHg 76%
18:00 +13°C° 0 mm 2 mps 724 mmHg 79%
19:00 +13°C° 0 mm 2 mps 724 mmHg 81%
20:00 +12°C° 0 mm 2 mps 725 mmHg 81%
21:00 +12°C° 0 mm 1 mps 725 mmHg 81%
22:00 +12°C° 0 mm 1 mps 725 mmHg 82%
23:00 +11°C° 0 mm 1 mps 725 mmHg 83%

28 Octubre, Miércoles

Tiempo Temperatura Precipitaciones Viento Presión Humedad
00:00 +11°C° 0 mm 1 mps 725 mmHg 84%
01:00 +11°C° 0 mm 1 mps 726 mmHg 86%
02:00 +10°C° 0 mm 1 mps 726 mmHg 87%
03:00 +10°C° 0 mm 1 mps 726 mmHg 88%
04:00 +9°C° 0 mm 0 mps 726 mmHg 90%
05:00 +9°C° 0 mm 0 mps 726 mmHg 90%
06:00 +9°C° 0 mm 0 mps 726 mmHg 90%
07:00 +8°C° 0 mm 0 mps 726 mmHg 90%
08:00 +10°C° 0 mm 0 mps 727 mmHg 84%
09:00 +12°C° 0 mm 0 mps 727 mmHg 77%
10:00 +14°C° 0 mm 0 mps 727 mmHg 71%
11:00 +16°C° 0 mm 1 mps 727 mmHg 68%
12:00 +16°C° 0 mm 1 mps 727 mmHg 65%
13:00 +18°C° 0 mm 1 mps 727 mmHg 62%
14:00 +16°C° 0 mm 1 mps 727 mmHg 68%
15:00 +15°C° 0 mm 1 mps 727 mmHg 74%
16:00 +14°C° 0 mm 1 mps 726 mmHg 80%
17:00 +13°C° 0 mm 1 mps 726 mmHg 83%
18:00 +11°C° 0 mm 0 mps 727 mmHg 85%
19:00 +11°C° 0 mm 0 mps 727 mmHg 88%
20:00 +11°C° 0 mm 1 mps 727 mmHg 89%
21:00 +11°C° 0 mm 1 mps 727 mmHg 90%
22:00 +11°C° 0 mm 1 mps 727 mmHg 91%
23:00 +11°C° 0 mm 1 mps 727 mmHg 91%

29 Octubre, Jueves

Tiempo Temperatura Precipitaciones Viento Presión Humedad
00:00 +10°C° 0 mm 1 mps 727 mmHg 92%
01:00 +10°C° 0 mm 1 mps 727 mmHg 92%
02:00 +10°C° 0 mm 1 mps 727 mmHg 92%
03:00 +10°C° 0 mm 1 mps 727 mmHg 93%
04:00 +10°C° 0 mm 1 mps 727 mmHg 93%
05:00 +10°C° 0 mm 1 mps 728 mmHg 92%
06:00 +10°C° 0 mm 1 mps 728 mmHg 91%
07:00 +10°C° 0 mm 1 mps 728 mmHg 90%
08:00 +11°C° 0 mm 1 mps 728 mmHg 83%
09:00 +13°C° 0 mm 1 mps 729 mmHg 75%
10:00 +15°C° 0 mm 1 mps 729 mmHg 67%
11:00 +15°C° 0 mm 1 mps 729 mmHg 63%
12:00 +16°C° 0 mm 1 mps 729 mmHg 58%
13:00 +17°C° 0 mm 2 mps 729 mmHg 54%
14:00 +15°C° 0 mm 1 mps 729 mmHg 61%
15:00 +14°C° 0 mm 1 mps 729 mmHg 68%
16:00 +13°C° 0 mm 1 mps 729 mmHg 76%
17:00 +12°C° 0 mm 1 mps 730 mmHg 78%
18:00 +11°C° 0 mm 1 mps 730 mmHg 81%
19:00 +11°C° 0 mm 1 mps 730 mmHg 83%
20:00 +10°C° 0 mm 1 mps 731 mmHg 83%
21:00 +9°C° 0 mm 2 mps 731 mmHg 83%
22:00 +9°C° 0 mm 2 mps 731 mmHg 84%
23:00 +9°C° 0 mm 2 mps 731 mmHg 85%

30 Octubre, Viernes

Tiempo Temperatura Precipitaciones Viento Presión Humedad
00:00 +8°C° 0 mm 2 mps 731 mmHg 85%
01:00 +8°C° 0 mm 2 mps 732 mmHg 86%
02:00 +8°C° 0 mm 2 mps 732 mmHg 86%
03:00 +8°C° 0 mm 2 mps 732 mmHg 85%
04:00 +8°C° 0 mm 2 mps 732 mmHg 84%
05:00 +8°C° 0 mm 2 mps 732 mmHg 83%
06:00 +8°C° 0 mm 2 mps 732 mmHg 82%
07:00 +8°C° 0 mm 2 mps 732 mmHg 81%
08:00 +10°C° 0 mm 3 mps 732 mmHg 75%
09:00 +11°C° 0 mm 3 mps 733 mmHg 69%
10:00 +13°C° 0 mm 3 mps 733 mmHg 63%
11:00 +14°C° 0 mm 3 mps 733 mmHg 63%
12:00 +14°C° 0 mm 3 mps 733 mmHg 63%
13:00 +15°C° 0 mm 2 mps 733 mmHg 64%
14:00 +15°C° 0 mm 2 mps 733 mmHg 68%
15:00 +14°C° 0 mm 2 mps 733 mmHg 72%
16:00 +13°C° 0 mm 1 mps 732 mmHg 76%
17:00 +12°C° 0 mm 1 mps 733 mmHg 77%
18:00 +12°C° 0 mm 2 mps 733 mmHg 78%
19:00 +10°C° 0 mm 2 mps 733 mmHg 80%
20:00 +10°C° 0 mm 2 mps 733 mmHg 79%
21:00 +10°C° 0 mm 2 mps 733 mmHg 79%
22:00 +10°C° 0 mm 2 mps 733 mmHg 79%
23:00 +11°C° 0 mm 1 mps 733 mmHg 79%
Mostrar más

Necesitamos Su Consentimiento

Meteoprog y nuestros Proveedores de Servicios pueden almacenar y acceder a sus datos personales como cookies, identificadores de dispositivo u otras tecnologías similares de su dispositivo y procesar dichos datos para personalizar contenido y anuncios, además de ofrecer funciones de redes sociales y analizar el tráfico.

  • Almacenar y/o acceder a información en su dispositivo

    Se puede almacenar o acceder a cookies, identificadores de dispositivo u otra información de su dispositivo para los fines anteriormente indicados.

  • Anuncios y contenido personalizados, medición de anuncios y contenido, percepciones del público, y desarrollo de productos

    Los anuncios y el contenido pueden personalizarse en base a su perfil. Se pueden añadir más datos para personalizar mejor los anuncios y contenidos. Se puede medir el rendimiento de los anuncios y contenidos. Se puede obtener la percepción sobre el público que ha visto los anuncios y contenidos. Dichos datos pueden usarse para desarrollar o mejorar la experiencia del usuario, sistemas y software.

Al hacer clic en ‘Estoy De Acuerdo’ usted permitirá el uso de las cookies, identificadores de dispositivo, balizas web u otras tecnologías similares indicadas. Su configuración puede cambiarse desde el navegador de su dispositivo.

Para ciertos fines, los intereses legítimos pueden ser considerados por encima del consentimiento. Puede leer más sobre ello en nuestra Política de Privacidad y Cookies.